Home   Weather   Erlangen   Past weeks

Flag for Germany Past Weather in Erlangen, Bavaria, Germany — Yesterday and Last 2 Weeks

Now
52 °F

Fog.


Feels Like: 52 °F
Forecast: 51 / 70 °F
Wind: 1 mph from North

Location: Nuernberg

Current Time: Sep 27, 2016 at 5:46:37 AM

Latest Report: Sep 27, 2016 at 5:20 AM


Visibility: N/A

Pressure: 30.21 "Hg

Humidity: 100%

Dew Point: 52 °F

Location of ErlangenLocation

Past Weather in Erlangen — Graph

°F

Erlangen Temperature Yesterday

Maximum temperature yesterday: 70 °F (at 3:20 PM)
Minimum temperature yesterday: 45 °F (at 6:50 AM)
Average temperature yesterday: 56 °F

High & Low Weather Summary for the Past Weeks

 TemperatureHumidityPressure
High88 °F (Sep 12, 2:50 PM)100% (Sep 17, 9:50 AM)30.36 "Hg (Sep 17, 9:50 AM)
Low41 °F (Sep 22, 5:50 AM)27% (Sep 14, 2:20 PM)29.83 "Hg (Sep 15, 3:50 PM)
Average61 °F77%30.06 "Hg
* Reported Sep 12 4:20 AM — Sep 27 4:50 AM, Erlangen, Weather by CustomWeather, © 2016

Note: Actual official high and low records may vary slightly from our data, if they occured in-between our weather recording intervals... More about our weather records

Advertising

Erlangen Weather History for the Previous 24 Hours

Scroll right to see more
 ConditionsComfort  
Time TempWeatherWind HumidityBarometerVisibility
4:50 AM
Tue, Sep 27
52 °FFog.1 mph100%30.21 "HgN/A
4:20 AM54 °FClear.2 mph100%30.21 "Hg10 mi
3:50 AM54 °FClear.2 mph100%30.21 "Hg10 mi
3:20 AM54 °FPassing clouds.3 mph100%30.21 "HgN/A
2:50 AM54 °FClear.No wind100%30.21 "Hg10 mi
2:20 AM54 °FClear.1 mph100%30.21 "Hg10 mi
1:50 AM54 °FFog.No wind100%30.21 "HgN/A
1:20 AM52 °FFog.No wind100%30.21 "HgN/A
12:50 AM54 °FFog.No wind100%30.21 "HgN/A
12:20 AM54 °FFog.No wind94%30.21 "HgN/A
11:50 PM
Mon, Sep 26
54 °FFog.1 mph100%30.21 "HgN/A
11:20 PM55 °FPassing clouds.1 mph100%30.21 "HgN/A
10:50 PM55 °FPassing clouds.2 mph94%30.21 "HgN/A
10:20 PM55 °FClear.2 mph94%30.21 "Hg10 mi
9:50 PM57 °FClear.1 mph94%30.18 "Hg10 mi
9:20 PM57 °FClear.2 mph94%30.18 "Hg10 mi
8:50 PM57 °FClear.2 mph94%30.18 "Hg10 mi
8:20 PM59 °FClear.1 mph88%30.18 "Hg10 mi
7:50 PM61 °FClear.1 mph83%30.18 "Hg10 mi
7:20 PM61 °FClear.2 mph83%30.18 "Hg10 mi
6:50 PM63 °FSunny.2 mph77%30.18 "Hg10 mi
6:20 PM64 °FPassing clouds.3 mph68%30.15 "HgN/A
5:50 PM64 °FSunny.5 mph68%30.15 "Hg10 mi
5:20 PM66 °FPassing clouds.6 mph64%30.15 "HgN/A
4:50 PM66 °FPassing clouds.6 mph60%30.15 "HgN/A
4:20 PM68 °FPassing clouds.5 mph60%30.15 "HgN/A
3:50 PM70 °FPassing clouds.6 mph57%30.15 "HgN/A
3:20 PM70 °FPassing clouds.7 mph53%30.15 "HgN/A
2:50 PM68 °FPassing clouds.7 mph56%30.18 "HgN/A
2:20 PM68 °FPassing clouds.6 mph56%30.18 "HgN/A
1:50 PM68 °FSunny.6 mph56%30.18 "Hg10 mi
1:20 PM64 °FPassing clouds.7 mph68%30.18 "HgN/A
12:50 PM64 °FPassing clouds.5 mph64%30.18 "HgN/A
12:20 PM63 °FPassing clouds.6 mph73%30.18 "HgN/A
11:50 AM61 °FPassing clouds.5 mph77%30.18 "HgN/A
11:20 AM59 °FPassing clouds.5 mph82%30.18 "HgN/A
10:50 AM59 °FSunny.2 mph77%30.18 "Hg10 mi
10:20 AM55 °FPassing clouds.3 mph88%30.18 "HgN/A
9:50 AM54 °FSunny.2 mph94%30.18 "Hg10 mi
9:20 AM52 °FFog.2 mph88%30.18 "HgN/A
8:50 AM50 °FFog.1 mph94%30.18 "HgN/A
8:20 AM48 °FFog.3 mph100%30.18 "HgN/A
7:50 AM46 °FSleet. Fog.2 mph100%30.18 "HgN/A
7:20 AM45 °FSleet. Fog.2 mph100%30.15 "HgN/A
6:50 AM45 °FSleet. Fog.1 mph100%30.15 "HgN/A
6:20 AM46 °FSleet. Fog.1 mph100%30.15 "HgN/A
5:50 AM46 °FFog.1 mph100%30.15 "HgN/A
5:20 AM48 °FFog.2 mph100%30.15 "HgN/A
Weather by CustomWeather, © 2016

See weather overviewHow to use our weather pages